TimePST,TemperatureF,Dew PointF,Humidity,Sea Level PressureIn,VisibilityMPH,Wind Direction,Wind SpeedMPH,Gust SpeedMPH,PrecipitationIn,Events,Conditions,WindDirDegrees,DateUTC
12:56 AM,50.0,43.0,77,30.17,10.0,Calm,Calm,-,N/A,,Clear,0,2012-03-10 08:56:00
1:56 AM,46.9,37.9,71,30.18,10.0,Calm,Calm,-,N/A,,Clear,0,2012-03-10 09:56:00
2:56 AM,44.1,37.0,76,30.16,10.0,Calm,Calm,-,N/A,,Clear,0,2012-03-10 10:56:00
3:56 AM,44.1,37.0,76,30.14,10.0,SSE,3.5,-,N/A,,Clear,160,2012-03-10 11:56:00
4:56 AM,43.0,37.0,80,30.14,10.0,Calm,Calm,-,N/A,,Mostly Cloudy,0,2012-03-10 12:56:00
5:39 AM,44.6,37.4,76,30.13,10.0,Calm,Calm,-,N/A,,Overcast,0,2012-03-10 13:39:00
6:56 AM,45.0,37.9,76,30.14,10.0,Calm,Calm,-,N/A,,Clear,0,2012-03-10 14:56:00
7:56 AM,48.0,39.9,74,30.15,10.0,SSE,4.6,-,N/A,,Clear,150,2012-03-10 15:56:00
8:56 AM,51.1,41.0,68,30.15,10.0,Calm,Calm,-,N/A,,Partly Cloudy,0,2012-03-10 16:56:00
9:56 AM,53.1,42.1,66,30.15,10.0,North,6.9,-,N/A,,Clear,10,2012-03-10 17:56:00
10:56 AM,55.0,43.0,64,30.14,10.0,North,6.9,-,N/A,,Clear,10,2012-03-10 18:56:00
11:56 AM,57.0,45.0,64,30.12,10.0,NNW,5.8,-,N/A,,Clear,340,2012-03-10 19:56:00
12:56 PM,59.0,45.0,60,30.09,10.0,North,8.1,-,N/A,,Partly Cloudy,10,2012-03-10 20:56:00
1:56 PM,60.1,46.0,60,30.06,10.0,North,12.7,-,N/A,,Clear,350,2012-03-10 21:56:00
2:56 PM,57.9,46.9,67,30.05,10.0,NNW,12.7,18.4,N/A,,Scattered Clouds,330,2012-03-10 22:56:00
3:56 PM,60.1,48.0,64,30.03,10.0,NNW,16.1,-,N/A,,Scattered Clouds,340,2012-03-10 23:56:00
4:56 PM,57.9,48.0,70,30.02,10.0,NNW,10.4,25.3,N/A,,Partly Cloudy,340,2012-03-11 00:56:00
5:56 PM,55.0,46.0,72,30.02,10.0,West,10.4,17.3,N/A,,Mostly Cloudy,270,2012-03-11 01:56:00
6:56 PM,52.0,45.0,77,30.05,10.0,NW,9.2,-,N/A,,Mostly Cloudy,310,2012-03-11 02:56:00
7:56 PM,51.1,44.1,77,30.05,10.0,WNW,8.1,-,N/A,,Overcast,300,2012-03-11 03:56:00
8:56 PM,51.1,42.1,71,30.06,10.0,NW,8.1,-,N/A,,Overcast,310,2012-03-11 04:56:00
9:56 PM,50.0,42.1,74,30.07,10.0,NW,8.1,-,N/A,,Overcast,310,2012-03-11 05:56:00
10:56 PM,50.0,41.0,71,30.06,10.0,WNW,4.6,-,N/A,,Overcast,300,2012-03-11 06:56:00
11:56 PM,50.0,41.0,71,30.07,10.0,WNW,3.5,-,N/A,,Overcast,290,2012-03-11 07:56:00